Weather History for Covington, KY

Change the Weather History Date:

Wednesday, November 28, 2012

  Actual Average Record
Temperature  
Mean Temperature 33 °F 40 °F  
Max Temperature 45 °F 48 °F 70 °F (1909)
Min Temperature 20 °F 32 °F 6 °F (1930)
Degree Days  
Heating Degree Days 32 25  
Month to date heating degree days 631 546  
Since 1 July heating degree days 1059 908  
Cooling Degree Days 0 0  
Month to date cooling degree days 0 0  
Year to date cooling degree days 1439 1121  
Moisture  
Dew Point 22 °F    
Average Humidity 67    
Maximum Humidity 92    
Minimum Humidity 41    
Precipitation  
Precipitation 0.00 in 0.11 in 1.29 in (2011)
Month to date precipitation 1.08 3.19  
Year to date precipitation 33.03 38.91  
Snow  
Snow 0.00 in 0.00 in 8.30 in (1958)
Month to date snowfall T 0.3  
Since 1 July snowfall T 0.7  
Since 1 September snowfall T 0.7  
Snow Depth 0.00 in    
Sea Level Pressure  
Sea Level Pressure 30.39 in    
Wind  
Wind Speed 4 mph (WSW)    
Max Wind Speed 13 mph    
Max Gust Speed 16 mph    
Visibility 8 miles    
Events      
T = Trace of Precipitation, MM = Missing Value Source: NWS Daily Summary

Daily Weather History Graph

Daily Weather History Graph

Search for Another Location

Airport:

Trip Planner

Search our weather history database for the weather conditions in past years. The results will help you decide how hot, cold, wet, or windy it might be!

Date:

Astronomy

Nov. 28, 2012 Rise Set
Actual Time 7:36 AM EST 5:17 PM EST
Civil Twilight 7:06 AM EST 5:46 PM EST
Nautical Twilight 6:33 AM EST 6:19 PM EST
Astronomical Twilight 6:01 AM EST 6:51 PM EST
Moon 5:31 PM EST (11/28) 7:32 AM EST (11/28)
Length of Visible Light 10h 39m
Length of Day
9h 41m
Full, 100% of the Moon is Illuminated
Nov 28
Full
Dec 6
Last Quarter
Dec 13
New
Dec 20
First Quarter
Dec 28
Full

Hourly Weather History & Observations

Time (EST) Temp. Windchill Dew Point Humidity Pressure Visibility Wind Dir Wind Speed Gust Speed Precip Events Conditions
12:52 AM 27.0 °F - 21.0 °F 78% 30.32 in 6.0 mi Calm Calm - N/A   Haze
1:52 AM 25.0 °F - 21.0 °F 85% 30.32 in 6.0 mi Calm Calm - N/A   Mostly Cloudy
2:52 AM 24.1 °F - 19.9 °F 84% 30.33 in 5.0 mi Calm Calm - N/A   Mostly Cloudy
3:52 AM 26.1 °F 20.5 °F 21.0 °F 81% 30.33 in 6.0 mi South 4.6 mph - N/A   Haze
4:52 AM 25.0 °F 18.1 °F 21.0 °F 85% 30.34 in 6.0 mi SW 5.8 mph - N/A   Scattered Clouds
5:52 AM 23.0 °F - 19.9 °F 88% 30.36 in 5.0 mi Calm Calm - N/A   Partly Cloudy
6:52 AM 21.9 °F - 19.9 °F 92% 30.38 in 5.0 mi Calm Calm - N/A   Clear
7:52 AM 21.0 °F 16.2 °F 18.0 °F 88% 30.40 in 5.0 mi SSW 3.5 mph - N/A   Partly Cloudy
8:52 AM 28.0 °F 22.8 °F 23.0 °F 81% 30.41 in 7.0 mi WSW 4.6 mph - N/A   Partly Cloudy
9:52 AM 33.1 °F 25.5 °F 25.0 °F 72% 30.42 in 8.0 mi WSW 9.2 mph - N/A   Clear
10:52 AM 36.0 °F 29.0 °F 25.0 °F 64% 30.43 in 9.0 mi West 9.2 mph - N/A   Clear
11:52 AM 39.0 °F 32.8 °F 23.0 °F 53% 30.43 in 10.0 mi West 9.2 mph - N/A   Clear
12:52 PM 41.0 °F 35.8 °F 23.0 °F 49% 30.41 in 10.0 mi WSW 8.1 mph - N/A   Clear
1:52 PM 44.1 °F 40.1 °F 23.0 °F 43% 30.39 in 10.0 mi WNW 6.9 mph - N/A   Clear
2:52 PM 44.1 °F 38.6 °F 23.0 °F 43% 30.38 in 10.0 mi WNW 10.4 mph - N/A   Clear
3:52 PM 44.1 °F 39.0 °F 23.0 °F 43% 30.38 in 10.0 mi WNW 9.2 mph - N/A   Clear
4:52 PM 39.9 °F 35.8 °F 23.0 °F 51% 30.39 in 10.0 mi West 5.8 mph - N/A   Clear
5:52 PM 37.9 °F 34.4 °F 21.9 °F 53% 30.39 in 10.0 mi West 4.6 mph - N/A   Clear
6:52 PM 33.1 °F - 21.9 °F 64% 30.41 in 10.0 mi Calm Calm - N/A   Clear
7:52 PM 32.0 °F - 21.0 °F 64% 30.42 in 10.0 mi Calm Calm - N/A   Clear
8:52 PM 28.9 °F - 21.9 °F 75% 30.42 in 9.0 mi Calm Calm - N/A   Clear
9:52 PM 27.0 °F 23.0 °F 21.0 °F 78% 30.41 in 8.0 mi South 3.5 mph - N/A   Clear
10:52 PM 24.1 °F 19.7 °F 19.9 °F 84% 30.40 in 8.0 mi South 3.5 mph - N/A   Clear
11:52 PM 25.0 °F 20.7 °F 21.0 °F 85% 30.40 in 7.0 mi South 3.5 mph - N/A   Clear